Weather History for Buffalo, WY

Change the Weather History Date:

Thursday, March 7, 2013

  Actual Average Record
Temperature  
Mean Temperature 38 °F 32 °F  
Max Temperature 46 °F 43 °F 60 °F (2007)
Min Temperature 30 °F 21 °F 0 °F (2003)
Degree Days  
Heating Degree Days 27 33  
Month to date heating degree days 218 237  
Since 1 July heating degree days 5167 5477  
Cooling Degree Days 0 0  
Month to date cooling degree days 0 0  
Year to date cooling degree days 0 0  
Moisture  
Dew Point 21 °F    
Average Humidity 53    
Maximum Humidity 72    
Minimum Humidity 33    
Precipitation  
Precipitation 0.00 in 0.02 in 0.09 in (2000)
Month to date precipitation T 0.15  
Year to date precipitation 0.61 0.92  
Sea Level Pressure  
Sea Level Pressure 29.94 in    
Wind  
Wind Speed 7 mph (NW)    
Max Wind Speed 23 mph    
Max Gust Speed 29 mph    
Visibility 10 miles    
Events      
T = Trace of Precipitation, MM = Missing Value Source: NWS Daily Summary

Daily Weather History Graph

Daily Weather History Graph

Search for Another Location

Airport:

Trip Planner

Search our weather history database for the weather conditions in past years. The results will help you decide how hot, cold, wet, or windy it might be!

Date:

Astronomy

Mar. 07, 2013 Rise Set
Actual Time 6:33 AM MST 6:03 PM MST
Civil Twilight 6:04 AM MST 6:32 PM MST
Nautical Twilight 5:30 AM MST 7:05 PM MST
Astronomical Twilight 4:56 AM MST 7:39 PM MST
Moon 3:43 AM MST (3/7) 1:46 PM MST (3/7)
Length of Visible Light 12h 28m
Length of Day
11h 30m
Waning Crescent, 19% of the Moon is Illuminated
Mar 7
Waning Crescent
Mar 11
New
Mar 19
First Quarter
Mar 27
Full
Apr 2
Last Quarter

Hourly Weather History & Observations

Time (MST) Temp. Windchill Dew Point Humidity Pressure Visibility Wind Dir Wind Speed Gust Speed Precip Events Conditions
12:53 AM 45.0 °F 37.1 °F 25.0 °F 46% 29.70 in 10.0 mi SSW 19.6 mph 27.6 mph N/A   Clear
1:53 AM 35.1 °F 29.3 °F 23.0 °F 61% 29.75 in 10.0 mi NW 6.9 mph - N/A   Clear
2:53 AM 37.0 °F 29.8 °F 23.0 °F 57% 29.75 in 10.0 mi WNW 10.4 mph - N/A   Clear
3:53 AM 35.1 °F 29.3 °F 23.0 °F 61% 29.78 in 10.0 mi North 6.9 mph - N/A   Clear
4:53 AM 35.1 °F 28.6 °F 24.1 °F 64% 29.80 in 10.0 mi West 8.1 mph - N/A   Clear
5:53 AM 34.0 °F 31.0 °F 23.0 °F 64% 29.84 in 10.0 mi South 3.5 mph - N/A   Clear
6:53 AM 34.0 °F 29.8 °F 23.0 °F 64% 29.87 in 10.0 mi NNW 4.6 mph - N/A   Clear
7:53 AM 37.0 °F 31.6 °F 23.0 °F 57% 29.92 in 10.0 mi NNW 6.9 mph - N/A   Clear
8:53 AM 39.0 °F 35.7 °F 21.9 °F 50% 29.95 in 10.0 mi NW 4.6 mph - N/A   Clear
9:53 AM 39.9 °F 36.7 °F 21.9 °F 49% 29.96 in 10.0 mi East 4.6 mph - N/A   Clear
11:53 AM 43.0 °F 39.5 °F 16.0 °F 34% 30.00 in 10.0 mi East 5.8 mph - N/A   Partly Cloudy
12:53 PM 44.1 °F 39.5 °F 18.0 °F 35% 29.95 in 10.0 mi North 8.1 mph - N/A   Clear
1:53 PM 45.0 °F 40.6 °F 19.0 °F 36% 29.99 in 10.0 mi NNE 8.1 mph - N/A   Clear
2:53 PM 45.0 °F 40.1 °F 18.0 °F 34% 29.98 in 10.0 mi North 9.2 mph - N/A   Clear
3:53 PM 42.1 °F 38.4 °F 21.0 °F 43% 30.00 in 10.0 mi North 5.8 mph - N/A   Clear
4:53 PM 39.9 °F 35.8 °F 19.0 °F 43% 30.01 in 10.0 mi NW 5.8 mph - N/A   Clear
5:53 PM 36.0 °F 30.3 °F 21.0 °F 55% 30.04 in 10.0 mi WNW 6.9 mph - N/A   Clear
6:53 PM 35.1 °F 31.0 °F 21.0 °F 57% 30.06 in 10.0 mi West 4.6 mph - N/A   Clear
7:53 PM 34.0 °F 29.8 °F 21.0 °F 59% 30.06 in 10.0 mi WSW 4.6 mph - N/A   Partly Cloudy
8:53 PM 35.1 °F 31.0 °F 19.0 °F 52% 30.06 in 10.0 mi WSW 4.6 mph - N/A   Partly Cloudy
9:53 PM 30.9 °F 26.2 °F 21.9 °F 69% 30.07 in 10.0 mi ENE 4.6 mph - N/A   Clear
10:53 PM 32.0 °F 27.5 °F 21.9 °F 66% 30.06 in 10.0 mi SSW 4.6 mph - N/A   Clear
11:53 PM 32.0 °F 24.8 °F 21.9 °F 66% 30.05 in 10.0 mi South 8.1 mph - N/A   Clear